Location: Krakow
(50.0830°N, 19.9170°E)
Time: 19:00:15
(UTC+01:00)

SR - Pass Details

Date: 08 February 2023
Orbit: 582 x 867 km, 66.7° (Epoch: 20 March)

Event Time Altitude Azimuth Distance (km) Brightness Sun altitude
Rises 11:28:28 0° 156° (SSE) 3,200 ? 24.7°
Reaches altitude 10° 11:32:39 10° 124° (SE) 2,203 ? 24.7°
Maximum altitude 11:34:12 11° 106° (ESE) 2,083 ? 24.8°
Drops below altitude 10° 11:35:42 10° 88° (E) 2,149 ? 24.8°
Sets 11:39:37 0° 55° (NE) 2,996 ? 24.8°
